SAB404 LATI-LGSA

Flight info

Callsign SAB404
Flight time 1h 9m
Altitude 35000
Route ELBAK DCT DIMIS UL604 TRL UJ65 SOKRI
Aircraft B737/M-SDE2E3FGHIRWXY/LB1

Departure

Time 2026-05-07 13:36
Airport Tirana International Airport Mother Teresa (LATI)

Arrival

Time 2026-05-07 14:45
Airport Chania International Airport (LGSA)
Time Latitude Longitude Altitude Speed Heading
2026-05-07 13:30 41.42417 19.71461 119 ft 0 kts 264°
2026-05-07 13:30 41.42417 19.71460 119 ft 0 kts 264°
2026-05-07 13:32 41.42417 19.71461 119 ft 1 kts 264°
2026-05-07 13:32 41.42419 19.71478 119 ft 2 kts 264°
2026-05-07 13:32 41.42420 19.71503 119 ft 3 kts 276°
2026-05-07 13:33 41.42412 19.71527 119 ft 3 kts 317°
2026-05-07 13:33 41.42394 19.71539 119 ft 3 kts 354°
2026-05-07 13:33 41.42393 19.71539 119 ft 0 kts 355°
2026-05-07 13:34 41.42427 19.71526 119 ft 20 kts 342°
2026-05-07 13:34 41.42664 19.71536 119 ft 13 kts 75°
2026-05-07 13:34 41.42677 19.71662 119 ft 15 kts 86°
2026-05-07 13:35 41.42685 19.71809 119 ft 14 kts 85°
2026-05-07 13:35 41.42660 19.71915 119 ft 9 kts 182°
2026-05-07 13:35 41.42617 19.71903 119 ft 0 kts 174°
2026-05-07 13:36 41.42324 19.71945 119 ft 96 kts 174°
2026-05-07 13:36 41.41346 19.72069 147 ft 181 kts 175°
2026-05-07 13:36 41.40045 19.72245 1351 ft 187 kts 174°
2026-05-07 13:36 41.38718 19.72421 2754 ft 200 kts 174°
2026-05-07 13:37 41.37249 19.72617 3779 ft 224 kts 174°
2026-05-07 13:37 41.35619 19.72833 4786 ft 246 kts 175°
2026-05-07 13:37 41.33860 19.73066 5948 ft 259 kts 175°
2026-05-07 13:37 41.32034 19.73307 7199 ft 266 kts 175°
2026-05-07 13:38 41.30168 19.73554 8439 ft 272 kts 176°
2026-05-07 13:38 41.28260 19.73807 9571 ft 279 kts 176°
2026-05-07 13:38 41.26322 19.74149 9863 ft 285 kts 169°
2026-05-07 13:38 41.24575 19.75368 10263 ft 298 kts 147°
2026-05-07 13:39 41.22893 19.77182 11097 ft 316 kts 145°
2026-05-07 13:39 41.21075 19.78952 11861 ft 333 kts 149°
2026-05-07 13:39 41.19117 19.80663 12693 ft 347 kts 151°
2026-05-07 13:39 41.17052 19.82405 13769 ft 355 kts 152°
2026-05-07 13:40 41.14949 19.84179 14945 ft 361 kts 152°
2026-05-07 13:40 41.12799 19.85990 16098 ft 368 kts 152°
2026-05-07 13:40 41.10620 19.87825 17196 ft 374 kts 152°
2026-05-07 13:40 41.08430 19.89667 18247 ft 380 kts 152°
2026-05-07 13:41 41.06185 19.91556 19268 ft 386 kts 152°
2026-05-07 13:41 41.03897 19.93478 20259 ft 391 kts 152°
2026-05-07 13:41 41.01581 19.95423 21201 ft 396 kts 152°
2026-05-07 13:41 40.99228 19.97396 22090 ft 402 kts 152°
2026-05-07 13:42 40.96850 19.99389 22929 ft 407 kts 152°
2026-05-07 13:42 40.94441 20.01407 23741 ft 412 kts 152°
2026-05-07 13:42 40.92004 20.03445 24491 ft 417 kts 152°
2026-05-07 13:42 40.89535 20.05508 25212 ft 422 kts 152°
2026-05-07 13:43 40.87070 20.07565 25866 ft 426 kts 152°
2026-05-07 13:43 40.84490 20.09504 26483 ft 427 kts 158°
2026-05-07 13:43 40.81785 20.11187 27095 ft 431 kts 159°
2026-05-07 13:43 40.79079 20.12926 27688 ft 435 kts 158°
2026-05-07 13:44 40.76347 20.14719 28198 ft 441 kts 158°
2026-05-07 13:44 40.73586 20.16527 28709 ft 445 kts 158°
2026-05-07 13:44 40.70793 20.18355 29190 ft 449 kts 158°
2026-05-07 13:44 40.67979 20.20193 29640 ft 453 kts 158°
2026-05-07 13:45 40.65137 20.22050 30076 ft 457 kts 159°
2026-05-07 13:45 40.62265 20.23923 30473 ft 462 kts 159°
2026-05-07 13:45 40.59404 20.25788 30819 ft 467 kts 159°
2026-05-07 13:45 40.56480 20.27692 31169 ft 472 kts 159°
2026-05-07 13:46 40.53525 20.29614 31595 ft 474 kts 159°
2026-05-07 13:46 40.50568 20.31535 32042 ft 476 kts 159°
2026-05-07 13:46 40.47595 20.33466 32473 ft 478 kts 160°
2026-05-07 13:46 40.44598 20.35410 32913 ft 479 kts 160°
2026-05-07 13:47 40.41610 20.37346 33330 ft 481 kts 160°
2026-05-07 13:47 40.38597 20.39296 33753 ft 483 kts 160°
2026-05-07 13:47 40.35577 20.41248 34163 ft 484 kts 160°
2026-05-07 13:47 40.32553 20.43203 34624 ft 484 kts 160°
2026-05-07 13:48 40.29570 20.45128 35065 ft 485 kts 161°
2026-05-07 13:48 40.23525 20.49025 35103 ft 484 kts 160°
2026-05-07 13:49 40.17470 20.52918 35108 ft 483 kts 161°
2026-05-07 13:49 40.12443 20.56146 35107 ft 483 kts 160°
2026-05-07 13:50 40.06403 20.60005 35107 ft 482 kts 161°
2026-05-07 13:50 39.99318 20.64322 35110 ft 478 kts 161°
2026-05-07 13:51 39.94252 20.67411 35113 ft 488 kts 162°
2026-05-07 13:51 39.88136 20.71134 35110 ft 487 kts 162°
2026-05-07 13:52 39.81995 20.74867 35111 ft 486 kts 162°
2026-05-07 13:52 39.75869 20.78582 35111 ft 485 kts 161°
2026-05-07 13:53 39.69739 20.82294 35111 ft 486 kts 161°
2026-05-07 13:53 39.63752 20.86412 35112 ft 488 kts 158°
2026-05-07 13:54 39.57742 20.90526 35112 ft 487 kts 158°
2026-05-07 13:54 39.51759 20.94610 35113 ft 485 kts 158°
2026-05-07 13:55 39.45826 20.98651 35114 ft 485 kts 158°
2026-05-07 13:55 39.39850 21.02715 35116 ft 485 kts 158°
2026-05-07 13:56 39.33935 21.06728 35117 ft 485 kts 158°
2026-05-07 13:56 39.27946 21.10784 35117 ft 485 kts 158°
2026-05-07 13:57 39.21966 21.14826 35117 ft 486 kts 158°
2026-05-07 13:57 39.16006 21.18847 35117 ft 487 kts 158°
2026-05-07 13:58 39.09991 21.22897 35117 ft 488 kts 158°
2026-05-07 13:58 39.03970 21.26944 35117 ft 489 kts 158°
2026-05-07 13:59 38.97931 21.30994 35115 ft 490 kts 158°
2026-05-07 13:59 38.91864 21.35055 35115 ft 492 kts 158°
2026-05-07 14:00 38.85807 21.39103 35109 ft 494 kts 159°
2026-05-07 14:00 38.79679 21.43189 35112 ft 497 kts 159°
2026-05-07 14:01 38.73518 21.47289 35110 ft 499 kts 159°
2026-05-07 14:01 38.67338 21.51394 35117 ft 501 kts 159°
2026-05-07 14:02 38.61167 21.55488 35113 ft 503 kts 159°
2026-05-07 14:02 38.54917 21.59625 35111 ft 506 kts 159°
2026-05-07 14:03 38.48649 21.63764 35111 ft 508 kts 159°
2026-05-07 14:03 38.42385 21.67893 35114 ft 510 kts 159°
2026-05-07 14:04 38.36052 21.72061 35113 ft 513 kts 159°
2026-05-07 14:04 38.29683 21.76244 35112 ft 515 kts 159°
2026-05-07 14:05 38.23332 21.80405 35113 ft 516 kts 160°
2026-05-07 14:05 38.16927 21.84594 35112 ft 517 kts 159°
2026-05-07 14:06 38.10509 21.88783 35113 ft 519 kts 160°
2026-05-07 14:06 38.04078 21.92972 35115 ft 520 kts 160°
2026-05-07 14:07 37.97636 21.97161 35115 ft 520 kts 160°
2026-05-07 14:07 37.91230 22.01318 35116 ft 519 kts 160°
2026-05-07 14:08 37.84786 22.05491 35121 ft 519 kts 160°
2026-05-07 14:08 37.78345 22.09654 35122 ft 519 kts 160°
2026-05-07 14:09 37.71909 22.13805 35125 ft 519 kts 160°
2026-05-07 14:09 37.65523 22.17916 35128 ft 519 kts 160°
2026-05-07 14:10 37.59088 22.22051 35130 ft 518 kts 160°
2026-05-07 14:10 37.52661 22.26173 35131 ft 518 kts 160°
2026-05-07 14:11 37.46224 22.30293 35133 ft 518 kts 160°
2026-05-07 14:11 37.39878 22.34542 35128 ft 523 kts 153°
2026-05-07 14:12 37.34144 22.40290 35134 ft 530 kts 144°
2026-05-07 14:12 37.28389 22.46079 35135 ft 529 kts 146°
2026-05-07 14:13 37.22631 22.51847 35044 ft 529 kts 146°
2026-05-07 14:13 37.19761 22.54718 34458 ft 526 kts 146°
2026-05-07 14:13 37.16927 22.57552 34095 ft 517 kts 146°
2026-05-07 14:13 37.14172 22.60302 33797 ft 506 kts 146°
2026-05-07 14:14 37.11435 22.63031 33493 ft 502 kts 146°
2026-05-07 14:14 37.08661 22.65796 33111 ft 513 kts 146°
2026-05-07 14:14 37.05868 22.68579 32436 ft 514 kts 145°
2026-05-07 14:14 37.03061 22.71369 31663 ft 514 kts 145°
2026-05-07 14:15 37.00261 22.74151 30978 ft 510 kts 145°
2026-05-07 14:15 36.97499 22.76894 30386 ft 504 kts 145°
2026-05-07 14:15 36.94762 22.79609 29789 ft 498 kts 144°
2026-05-07 14:15 36.92059 22.82286 29136 ft 494 kts 145°
2026-05-07 14:16 36.89408 22.84912 28477 ft 489 kts 145°
2026-05-07 14:16 36.86758 22.87531 27864 ft 483 kts 144°
2026-05-07 14:16 36.84138 22.90122 27266 ft 476 kts 145°
2026-05-07 14:16 36.81555 22.92670 26674 ft 470 kts 145°
2026-05-07 14:17 36.79006 22.95184 26046 ft 464 kts 145°
2026-05-07 14:17 36.76486 22.97668 25447 ft 458 kts 145°
2026-05-07 14:17 36.74006 23.00109 24873 ft 451 kts 145°
2026-05-07 14:17 36.71559 23.02518 24305 ft 444 kts 145°
2026-05-07 14:18 36.69151 23.04885 23744 ft 437 kts 145°
2026-05-07 14:18 36.66808 23.07186 23194 ft 430 kts 145°
2026-05-07 14:18 36.64475 23.09476 22643 ft 424 kts 145°
2026-05-07 14:18 36.62174 23.11733 22098 ft 417 kts 145°
2026-05-07 14:19 36.59908 23.13954 21562 ft 411 kts 145°
2026-05-07 14:19 36.57676 23.16140 21033 ft 405 kts 145°
2026-05-07 14:19 36.55477 23.18292 20506 ft 399 kts 145°
2026-05-07 14:19 36.53310 23.20410 19982 ft 393 kts 145°
2026-05-07 14:20 36.51179 23.22492 19467 ft 387 kts 145°
2026-05-07 14:20 36.49104 23.24518 18962 ft 381 kts 145°
2026-05-07 14:20 36.47033 23.26538 18457 ft 376 kts 144°
2026-05-07 14:20 36.44986 23.28535 17951 ft 370 kts 144°
2026-05-07 14:21 36.42971 23.30498 17449 ft 364 kts 144°
2026-05-07 14:21 36.41014 23.32403 16959 ft 359 kts 144°
2026-05-07 14:21 36.39058 23.34307 16466 ft 354 kts 144°
2026-05-07 14:21 36.37127 23.36185 15976 ft 349 kts 144°
2026-05-07 14:22 36.35227 23.38031 15490 ft 344 kts 144°
2026-05-07 14:22 36.33349 23.39854 15010 ft 345 kts 143°
2026-05-07 14:22 36.31470 23.41678 14525 ft 348 kts 143°
2026-05-07 14:22 36.29552 23.43538 14023 ft 350 kts 143°
2026-05-07 14:23 36.27640 23.45392 13513 ft 347 kts 143°
2026-05-07 14:23 36.25739 23.47234 13104 ft 346 kts 143°
2026-05-07 14:23 36.23839 23.49073 12804 ft 345 kts 143°
2026-05-07 14:23 36.21950 23.50900 12394 ft 343 kts 142°
2026-05-07 14:24 36.20069 23.52719 12011 ft 342 kts 142°
2026-05-07 14:24 36.18196 23.54528 11641 ft 340 kts 142°
2026-05-07 14:24 36.16374 23.56288 11281 ft 332 kts 142°
2026-05-07 14:24 36.14582 23.58017 10928 ft 323 kts 142°
2026-05-07 14:25 36.12830 23.59706 10587 ft 315 kts 143°
2026-05-07 14:25 36.11125 23.61350 10255 ft 307 kts 143°
2026-05-07 14:25 36.09457 23.62957 9930 ft 301 kts 143°
2026-05-07 14:25 36.07821 23.64533 9610 ft 295 kts 143°
2026-05-07 14:26 36.06211 23.66082 9235 ft 292 kts 143°
2026-05-07 14:26 36.04617 23.67615 8878 ft 288 kts 143°
2026-05-07 14:26 36.03041 23.69131 8552 ft 284 kts 143°
2026-05-07 14:26 36.01511 23.70601 8245 ft 280 kts 143°
2026-05-07 14:27 35.99985 23.72067 7949 ft 276 kts 143°
2026-05-07 14:27 35.98497 23.73495 7860 ft 267 kts 143°
2026-05-07 14:27 35.97026 23.74907 7829 ft 266 kts 143°
2026-05-07 14:27 35.95568 23.76305 7756 ft 265 kts 143°
2026-05-07 14:28 35.94102 23.77711 7774 ft 268 kts 143°
2026-05-07 14:28 35.92625 23.79126 7798 ft 269 kts 143°
2026-05-07 14:28 35.91161 23.80528 7801 ft 269 kts 143°
2026-05-07 14:28 35.89680 23.81945 7490 ft 269 kts 143°
2026-05-07 14:29 35.88200 23.83361 7141 ft 269 kts 143°
2026-05-07 14:29 35.86721 23.84776 6791 ft 268 kts 143°
2026-05-07 14:29 35.85246 23.86185 6444 ft 268 kts 143°
2026-05-07 14:29 35.83775 23.87591 6096 ft 267 kts 143°
2026-05-07 14:30 35.82302 23.88997 5749 ft 267 kts 143°
2026-05-07 14:30 35.80832 23.90400 5401 ft 267 kts 143°
2026-05-07 14:30 35.79365 23.91800 5051 ft 266 kts 143°
2026-05-07 14:30 35.77899 23.93198 4701 ft 266 kts 143°
2026-05-07 14:31 35.76452 23.94576 4357 ft 266 kts 143°
2026-05-07 14:31 35.74990 23.95969 4056 ft 264 kts 143°
2026-05-07 14:31 35.73567 23.97324 4007 ft 252 kts 143°
2026-05-07 14:31 35.72213 23.98612 4009 ft 237 kts 143°
2026-05-07 14:32 35.70977 23.99838 3984 ft 221 kts 140°
2026-05-07 14:32 35.69955 24.01192 3989 ft 213 kts 131°
2026-05-07 14:32 35.68913 24.02463 3964 ft 212 kts 147°
2026-05-07 14:32 35.67692 24.03438 3969 ft 214 kts 139°
2026-05-07 14:33 35.67005 24.05041 3991 ft 215 kts 107°
2026-05-07 14:33 35.66794 24.06873 4009 ft 216 kts 97°
2026-05-07 14:33 35.66663 24.08708 3994 ft 216 kts 95°
2026-05-07 14:33 35.66552 24.10551 3995 ft 216 kts 95°
2026-05-07 14:34 35.66439 24.12386 3997 ft 216 kts 95°
2026-05-07 14:34 35.66326 24.14227 3997 ft 216 kts 95°
2026-05-07 14:34 35.66211 24.16038 3996 ft 215 kts 95°
2026-05-07 14:34 35.66092 24.17877 3994 ft 215 kts 95°
2026-05-07 14:35 35.65974 24.19711 3998 ft 215 kts 95°
2026-05-07 14:35 35.65857 24.21543 3996 ft 215 kts 95°
2026-05-07 14:35 35.65738 24.23376 4000 ft 215 kts 95°
2026-05-07 14:35 35.65622 24.25206 3987 ft 215 kts 95°
2026-05-07 14:36 35.65475 24.27034 3961 ft 215 kts 100°
2026-05-07 14:36 35.64940 24.28743 3984 ft 214 kts 115°
2026-05-07 14:36 35.64304 24.30395 3969 ft 213 kts 116°
2026-05-07 14:36 35.63670 24.32042 3966 ft 214 kts 116°
2026-05-07 14:37 35.63034 24.33692 3969 ft 213 kts 116°
2026-05-07 14:37 35.61771 24.36976 3972 ft 213 kts 116°
2026-05-07 14:37 35.61135 24.38623 3974 ft 213 kts 116°
2026-05-07 14:38 35.60505 24.40268 3969 ft 208 kts 116°
2026-05-07 14:38 35.59869 24.41799 3940 ft 195 kts 124°
2026-05-07 14:38 35.58833 24.42689 3930 ft 181 kts 161°
2026-05-07 14:38 35.57600 24.42753 3988 ft 177 kts 183°
2026-05-07 14:39 35.56375 24.42588 3899 ft 178 kts 187°
2026-05-07 14:39 35.55127 24.42410 3782 ft 183 kts 187°
2026-05-07 14:39 35.53847 24.42215 3600 ft 187 kts 188°
2026-05-07 14:39 35.52560 24.41996 3412 ft 186 kts 188°
2026-05-07 14:40 35.51277 24.41779 3215 ft 185 kts 188°
2026-05-07 14:40 35.49998 24.41562 3024 ft 185 kts 188°
2026-05-07 14:40 35.48746 24.41347 2987 ft 184 kts 188°
2026-05-07 14:40 35.47616 24.40650 2939 ft 185 kts 221°
2026-05-07 14:41 35.47064 24.39233 2981 ft 187 kts 254°
2026-05-07 14:41 35.46978 24.37645 2984 ft 187 kts 270°
2026-05-07 14:41 35.47064 24.36595 2980 ft 187 kts 276°
2026-05-07 14:41 35.47334 24.35031 2975 ft 187 kts 283°
2026-05-07 14:42 35.47697 24.33488 2971 ft 188 kts 285°
2026-05-07 14:42 35.48229 24.31472 2972 ft 188 kts 287°
2026-05-07 14:42 35.48514 24.30446 2970 ft 188 kts 288°
2026-05-07 14:42 35.48940 24.28952 2979 ft 188 kts 288°
2026-05-07 14:43 35.49383 24.27418 2742 ft 188 kts 288°
2026-05-07 14:43 35.49818 24.25924 2451 ft 187 kts 289°
2026-05-07 14:43 35.50251 24.24448 2158 ft 184 kts 289°
2026-05-07 14:43 35.50687 24.22966 1818 ft 182 kts 289°
2026-05-07 14:44 35.50980 24.21521 1386 ft 168 kts 282°
2026-05-07 14:44 35.51359 24.20203 1083 ft 159 kts 293°
2026-05-07 14:44 35.51789 24.19061 888 ft 138 kts 295°
2026-05-07 14:44 35.52140 24.17995 737 ft 132 kts 293°
2026-05-07 14:45 35.52556 24.17011 577 ft 127 kts 297°
2026-05-07 14:45 35.52925 24.16092 522 ft 107 kts 288°
2026-05-07 14:45 35.53144 24.15391 521 ft 58 kts 292°
2026-05-07 14:45 35.53254 24.15059 521 ft 41 kts 291°
2026-05-07 14:46 35.53366 24.14739 521 ft 38 kts 295°
2026-05-07 14:46 35.53445 24.14521 521 ft 21 kts 302°
2026-05-07 14:46 35.53541 24.14525 521 ft 15 kts 22°
2026-05-07 14:46 35.53655 24.14579 521 ft 21 kts 21°
2026-05-07 14:47 35.53721 24.14547 521 ft 13 kts 283°
2026-05-07 14:47 35.53767 24.14385 521 ft 25 kts 298°
2026-05-07 14:47 35.53845 24.14333 521 ft 13 kts 22°
2026-05-07 14:47 35.53896 24.14359 521 ft 0 kts 18°